269P/Jedicke (2014)

Japanese version
Home page
Updated on November 13, 2016

---------------------------------------------------------------------

* Profile

Designation 269P/2012 R2
Recovery Date September 11, 2012
Magnitude 20.9 mag
Recoverer Artyom Novichonok and Otabek Burhonov (Majdanak observatory in Uzbekistan)

* Pictures

* Orbital Elements

Epoch 2014 Oct. 30.0 TT = JDT 2456960.5
T 2014 Nov. 14.60972 TT                                 MPCW
q   4.0793214            (2000.0)            P               Q
n   0.04971063     Peri.  223.36865     -0.37175898     -0.92212647
a   7.3254872      Node   248.71763     +0.88004530     -0.31333378
e   0.4431331      Incl.    6.60228     +0.29549200     -0.22694651
P  19.8
From 735 observations 1993 Oct. 12-2015 Mar. 28, mean residual 0".5.

* Finding Charts

* Magnitudes Graph

        m1 = -1.2 + 5 log d + 24.0 log r(t - 60)

---------------------------------------------------------------------

The orbital elements are published on M.P.E.C. 2015-G03.
The charts are made with StellaNavigator Ver.8 (AstroArts).
The magnitudes graphs are made with Comet for Windows.

---------------------------------------------------------------------

Copyright(C) Seiichi Yoshida (comet@aerith.net). All rights reserved.